Lexington Weather

Lexington, Massachusetts, USA

72°F
9/22/2021 2:23pm 
  • Lexington Conditions: Light rain, Mist, Overcast
  • Temperature: 71.8°F / 22.1°CColder 3.4°F than last hour.
  • Dew Point: 69.3°FIncreased 0.8°Fsince last hour.
  • Relative Humidity: 92%Increased 12.0% since last hour.
  • Wind: Wind from WSW WSW 2 mph, 10-min avg: 4 mph, gust: 13 mph
  • Barometer: 30.08 inFalling 0.02  inHg/hr Falling Slowly
  • Visibility: 2 miles
  • Rain Today: 0.00 in
  •   

Regional Weather Roundup
for Boston / Norton, MA

        
000
ASUS41 KBOX 210904
RWRBOX

REGIONAL WEATHER ROUNDUP
NATIONAL WEATHER SERVICE BOSTON/NORTON MA
500 AM EDT TUE SEP 21 2021

NOTE:  "FAIR" INDICATES FEW OR NO CLOUDS BELOW 12,000 FEET WITH NO 
SIGNIFICANT WEATHER AND/OR OBSTRUCTIONS TO VISIBILITY.

MAZALL-211000-
EASTERN MASSACHUSETTS
  
CITY           SKY/WX    TMP DP  RH WIND       PRES   REMARKS
BOSTON         PTCLDY    59  52  77 CALM      30.40F                  
BEVERLY        PTCLDY    50  49  96 CALM      30.40S                  
LAWRENCE       FOG       52  52 100 CALM      30.43R VSB 1/4          
BEDFORD        FOG       48  48 100 CALM      30.40S VSB 1/2          
BLUE HILL      NOT AVBL                                               
NORWOOD        PTCLDY    43  41  93 CALM      30.40S                  
MARSHFIELD     PTCLDY    50  50 100 CALM      30.39F                  
PLYMOUTH       CLEAR     49  48  97 CALM      30.39F                  
TAUNTON        CLEAR     44  42  93 CALM      30.40R                  
NEW BEDFORD    PTCLDY    48  47  96 CALM      30.39R FOG              
$$

MAZALL-211000-
CAPE COD AND THE ISLANDS
  
CITY           SKY/WX    TMP DP  RH WIND       PRES   REMARKS
FALMOUTH       NOT AVBL                                               
HYANNIS        PTCLDY    53  52  96 CALM      30.38S                  
CHATHAM        PTCLDY    63  59  87 E5        30.40S                  
PROVINCETOWN   CLEAR     56  55  97 E6        30.41S                  
NANTUCKET      CLEAR     61  57  87 E7        30.38S                  
MARTHAS VNYRD  PTCLDY    48  48 100 NE3       30.38S                  
$$
 
MAZALL-211000-
CENTRAL AND WESTERN MASSACHUSETTS
  
CITY           SKY/WX    TMP DP  RH WIND       PRES   REMARKS
WORCESTER      CLEAR     53  51  93 CALM      30.40S                  
FITCHBURG      CLEAR     49  47  93 CALM      30.41S                  
ORANGE         MOCLDY    49  48  97 CALM      30.41S                  
SPRINGFIELD    CLEAR     49  49 100 NE3       30.38S                  
WESTFIELD      CLEAR     51  51 100 CALM      30.38F                  
NORTH ADAMS    CLEAR     55  52  89 CALM      30.37S                  
PITTSFIELD     PTCLDY    51  50  96 N3        30.37S                  
$$
 
RIZALL-211000-
RHODE ISLAND
  
CITY           SKY/WX    TMP DP  RH WIND       PRES   REMARKS
PROVIDENCE     CLEAR     53  52  96 N3        30.40S                  
NEWPORT        CLEAR     52  50  93 CALM      30.38S                  
SMITHFIELD     CLEAR     48  48 100 CALM      30.40S                  
WESTERLY       CLEAR     49  49 100 N3        30.38F                  
$$
 
CTZALL-211000-
CONNECTICUT
  
CITY           SKY/WX    TMP DP  RH WIND       PRES   REMARKS
BRADLEY INTL   PTCLDY    51  51 100 N3        30.38F                  
HARTFORD       CLEAR     54  52  93 NE3       30.37F                  
BRIDGEPORT     CLEAR     61  54  77 N5        30.35F                  
DANBURY        PTCLDY    52  49  89 CALM      30.37F FOG              
GROTON         CLEAR     52  51  97 N5        30.37S                  
NEW HAVEN      CLEAR     55  53  93 N5        30.36F                  
CHESTER        FAIR      52  52 100 CALM      30.38S                  
MERIDEN        CLEAR     53  51  93 CALM      30.37F                  
WILLIMANTIC    FOG       50  49  96 N3        30.39F VSB 1/2          
OXFORD         PTCLDY    54  53  97 E3        30.38S                  
$$

MEZ002-015-021-024-NHZ003-005-008-011-012-014-VTZ005-008-211000-
NORTHERN NEW ENGLAND
  
CITY           SKY/WX    TMP DP  RH WIND       PRES   REMARKS
PORTLAND ME    PTCLDY    48  48 100 W3        30.42R                  
BANGOR ME      FOG       54  54 100 S5        30.43R VSB 1/4          
CONCORD NH     PTCLDY    47  46  97 CALM      30.42R                  
MANCHESTER NH  PTCLDY    53  49  86 NW3       30.40R VSB 1            
NASHUA NH      CLEAR     49  49 100 NW5       30.42S                  
PORTSMOUTH NH  PTCLDY    51  50  96 NW3       30.42R                  
JAFFREY NH     MOCLDY    49  49 100 CALM      30.41S                  
KEENE NH       CLOUDY    52  51  97 CALM      30.41S                  
BURLINGTON VT  CLEAR     63  55  75 S13       30.32R                  
MT. WASHINGTON MOCLDY    50   1  13 S21         N/A                   
$$

NYZ052-076-211000-
EASTERN NEW YORK
  
CITY           SKY/WX    TMP DP  RH WIND       PRES   REMARKS
ALBANY         PTCLDY    55  54  96 SE3       30.36R                  
NEW YORK CITY  PTCLDY    64  55  72 E6        30.33S                  
$$
 
ANZALL-211000-
MARINE OBSERVATIONS
  
STATION/POSITION TIME  TEMP    WIND        PRES    VSBY  WAVE
                       AIR SEA DIR/SP/G                  HT/PER
                 (UTC) (F)     (DEG/KT/KT) (MB)    (MI)  (FT/S)
BOSTON BUOY      0840      64  140/  8/ 10 1030.0S
BUZZARDS BAY     0800          120/ 10/ 11 1029.7F
NANTUCKET SOUND  0840   65 71  110/ 10/ 14 1028.8R
MASS BAY-STELLWA 0804   62     180/ 10/ 12 1029.4F  1 7/8  2/ 4
ISLE OF SHOALS   0800   62     170/ 10/ 11 1029.1F
S OF BLOCK IS    0826      70                N/A           3/ 8
$$

......................KEY.........................
  SKY/WX - SKY CONDITION/PRESENT WEATHER
  TMP    - TEMPERATURE IN FAHRENHEIT
  DWPT   - DEWPOINT IN FAHRENHEIT
  RH     - RELATIVE HUMIDITY IN PERCENT
  WIND   - DIRECTION AND SPEED IN MPH
  PRES   - MEAN SEA LEVEL PRESSURE IN INCHES OF HG
  WCI    - WIND CHILL INDEX
  VSB    - VISIBILITY IN MILES
  HX     - HEAT INDEX
  TC     - TEMPERATURE IN CELSIUS
  VRB    - VARIABLE WIND DIRECTION
  N/A    - NOT AVAILABLE
  
      

Other recent Regional Weather Roundups

Wed Sep 22, 2:04pm

Wed Sep 22, 1:04pm

Wed Sep 22, 12:05pm

Wed Sep 22, 11:04am

Wed Sep 22, 10:04am

Wed Sep 22, 9:04am

Wed Sep 22, 8:04am

Wed Sep 22, 7:04am

Wed Sep 22, 6:04am

Wed Sep 22, 5:04am

Wed Sep 22, 4:04am

Wed Sep 22, 3:04am

Wed Sep 22, 2:04am

Wed Sep 22, 1:04am

Wed Sep 22, 12:04am

Tue Sep 21, 11:04pm

Tue Sep 21, 10:04pm

Tue Sep 21, 9:04pm

Tue Sep 21, 8:04pm

Tue Sep 21, 7:04pm

Tue Sep 21, 6:04pm

Tue Sep 21, 5:04pm

Tue Sep 21, 4:04pm

Tue Sep 21, 3:04pm

Tue Sep 21, 2:04pm

Tue Sep 21, 1:04pm

Tue Sep 21, 12:04pm

Tue Sep 21, 11:04am

Tue Sep 21, 10:04am

Tue Sep 21, 9:04am

Tue Sep 21, 8:04am

Tue Sep 21, 7:04am

Tue Sep 21, 6:04am

Tue Sep 21, 4:04am

Tue Sep 21, 3:04am

Tue Sep 21, 2:04am

Tue Sep 21, 1:04am

Tue Sep 21, 12:04am

Mon Sep 20, 11:04pm

Mon Sep 20, 10:04pm

Mon Sep 20, 9:04pm

Mon Sep 20, 8:04pm

Mon Sep 20, 7:04pm

Mon Sep 20, 6:04pm

Mon Sep 20, 5:04pm

Mon Sep 20, 4:04pm

Mon Sep 20, 3:04pm

Mon Sep 20, 2:04pm

Mon Sep 20, 1:04pm

Mon Sep 20, 12:04pm

Mon Sep 20, 11:04am

Mon Sep 20, 10:04am

Mon Sep 20, 9:04am

Mon Sep 20, 7:04am

Mon Sep 20, 6:04am

Mon Sep 20, 5:04am

Mon Sep 20, 4:04am

Mon Sep 20, 3:04am

Mon Sep 20, 2:04am

Mon Sep 20, 1:04am

Mon Sep 20, 12:04am

Sun Sep 19, 11:04pm

Sun Sep 19, 10:04pm

Sun Sep 19, 9:04pm

Sun Sep 19, 8:04pm

Sun Sep 19, 7:04pm

Sun Sep 19, 6:04pm

Sun Sep 19, 5:04pm

Sun Sep 19, 4:04pm

Sun Sep 19, 3:04pm

Sun Sep 19, 2:05pm

Sun Sep 19, 1:04pm

Sun Sep 19, 12:04pm

Sun Sep 19, 11:04am

Sun Sep 19, 10:05am

Sun Sep 19, 9:04am

Sun Sep 19, 8:04am

Sun Sep 19, 7:04am

Sun Sep 19, 6:04am

Sun Sep 19, 5:04am

Sun Sep 19, 4:04am

Sun Sep 19, 3:04am

Sun Sep 19, 2:04am

Sun Sep 19, 1:04am

Sun Sep 19, 12:04am

Sat Sep 18, 11:05pm

Sat Sep 18, 10:04pm

Sat Sep 18, 9:04pm

Sat Sep 18, 8:04pm

Sat Sep 18, 7:04pm

Sat Sep 18, 6:04pm

Sat Sep 18, 5:04pm

Sat Sep 18, 4:04pm

Sat Sep 18, 3:04pm

Sat Sep 18, 2:04pm

Sat Sep 18, 1:04pm

Sat Sep 18, 12:04pm

Sat Sep 18, 11:04am

Sat Sep 18, 10:04am

Sat Sep 18, 9:04am

Sat Sep 18, 8:04am

Sat Sep 18, 7:04am

Sat Sep 18, 6:04am

Sat Sep 18, 5:04am

Sat Sep 18, 4:04am

Sat Sep 18, 3:04am

Sat Sep 18, 2:04am

Sat Sep 18, 1:04am

Sat Sep 18, 12:04am

Fri Sep 17, 11:04pm

Fri Sep 17, 10:04pm

Fri Sep 17, 9:04pm

Fri Sep 17, 8:04pm

Fri Sep 17, 7:04pm

Fri Sep 17, 6:04pm

Fri Sep 17, 5:04pm

Fri Sep 17, 4:04pm

Fri Sep 17, 3:04pm

Fri Sep 17, 2:04pm

Fri Sep 17, 1:04pm

Fri Sep 17, 12:05pm

Fri Sep 17, 11:04am

Fri Sep 17, 10:04am

Fri Sep 17, 9:04am

Fri Sep 17, 8:04am

Fri Sep 17, 7:04am

Fri Sep 17, 6:04am

Fri Sep 17, 5:04am

Fri Sep 17, 4:04am

Fri Sep 17, 3:04am

Fri Sep 17, 2:04am

Fri Sep 17, 1:04am

Fri Sep 17, 12:04am

Thu Sep 16, 11:04pm

Thu Sep 16, 10:04pm

Thu Sep 16, 9:04pm

Thu Sep 16, 8:04pm

Thu Sep 16, 7:04pm

Thu Sep 16, 6:04pm

Thu Sep 16, 5:04pm

Thu Sep 16, 4:04pm

Thu Sep 16, 3:04pm

Thu Sep 16, 2:04pm

Thu Sep 16, 1:05pm

Thu Sep 16, 12:04pm

Thu Sep 16, 11:05am

Thu Sep 16, 10:05am

Thu Sep 16, 9:04am

Thu Sep 16, 8:04am

Thu Sep 16, 7:04am

Thu Sep 16, 6:04am

Thu Sep 16, 5:04am

Thu Sep 16, 4:04am

Thu Sep 16, 3:04am

Thu Sep 16, 2:04am

Thu Sep 16, 1:04am

Thu Sep 16, 12:04am

Wed Sep 15, 11:04pm

Wed Sep 15, 10:04pm

Wed Sep 15, 9:04pm

Wed Sep 15, 8:04pm

Wed Sep 15, 7:04pm

Wed Sep 15, 6:04pm

Wed Sep 15, 5:05pm

Wed Sep 15, 4:04pm

Wed Sep 15, 3:04pm

Meta data:

ID: 0478dd07-a8d5-4dda-9608-a17a69be4b76
Link: https://api.weather.gov/products/0478dd07-a8d5-4dda-9608-a17a69be4b76